AirNav   Pilot Hours Calculator
 
 1243 users online  

KGRE Greenville Airport
Greenville, Illinois, USA

GOING TO GREENVILLE?


FAA INFORMATION EFFECTIVE 28 MARCH 2019

Location

FAA Identifier: GRE
Lat/Long: 38-50-10.4000N / 089-22-44.0000W
38-50.173333N / 089-22.733333W
38.8362222 / -89.3788889
(estimated)
Elevation: 540.8 ft. / 164.8 m (surveyed)
Variation: 02W (2020)
From city: 3 miles S of GREENVILLE, IL
Time zone: UTC -5 (UTC -6 during Standard Time)
Zip code: 62246

Airport Operations

Airport use: Open to the public
Control tower: no
ARTCC: KANSAS CITY CENTER
FSS: SAINT LOUIS FLIGHT SERVICE STATION
NOTAMs facility: STL (NOTAM-D service available)
Attendance: 0730-1700
Pattern altitude: 1340.8 ft. MSL
Wind indicator: lighted
Segmented circle: no
Lights: MIRL RY 18/36 PRESET ON MED INTST; TO INCR INTST ACTVT - CTAF.
Beacon: white-green (lighted land airport)
Operates sunset to sunrise.

Airport Communications

CTAF/UNICOM: 123.05
WX AWOS-A: 123.05 (618-664-1939)
WX AWOS-A at VLA (14 nm NE): 122.8 (618-283-9595)
  • APCH/DEP SVC PRVDD BY KANSAS CITY ARTCC ON FREQS 124.3/269.15 (DECATUR RCAG)

Nearby radio navigation aids

VOR radial/distance  VOR name  Freq  Var
VLAr209/18.5VANDALIA VORTAC114.3004E
TOYr073/25.9TROY VORTAC116.0004E
ENLr334/27.0CENTRALIA VORTAC115.0004E

 
NDB name  Hdg/Dist  Freq  Var  ID
SALEM302/22.440001WSLO ... .-.. ---
CIVIC MEMORIAL097/31.826301WCVM -.-. ...- --

Airport Services

Fuel available: 100LL JET-A
Parking: hangars and tiedowns
Airframe service: NONE
Powerplant service: NONE
Bottled oxygen: NONE
Bulk oxygen: NONE

Runway Information

Runway 18/36

Dimensions: 4002 x 75 ft. / 1220 x 23 m
Surface: asphalt, in good condition
Weight bearing capacity: 
Single wheel: 7.5
Runway edge lights: medium intensity
RUNWAY 18  RUNWAY 36
Latitude: 38-50.470900N38-49.811675N
Longitude: 089-22.587583W089-22.583670W
Elevation: 540.1 ft.531.7 ft.
Gradient: 0.2%0.2%
Traffic pattern: leftleft
Runway heading: 181 magnetic, 179 true001 magnetic, 359 true
Markings: nonprecision, in fair conditionnonprecision, in fair condition
Visual slope indicator: pulsating/steady burning VASI on left (3.00 degrees glide path)
Runway end identifier lights: yesyes
Touchdown point: yes, no lightsyes, no lights

Runway 9/27

Dimensions: 2822 x 250 ft. / 860 x 76 m
Surface: turf, in good condition
RUNWAY 9  RUNWAY 27
Latitude: 38-50.222495N38-50.218163N
Longitude: 089-23.238852W089-22.644395W
Elevation: 537.9 ft.537.7 ft.
Traffic pattern: leftleft
Runway heading: 092 magnetic, 090 true272 magnetic, 270 true
Touchdown point: yes, no lightsyes, no lights

Airport Ownership and Management from official FAA records

Ownership: Publicly-owned
Owner: THE GREENVILLE ARPT AUTHORITY
1374 SKY LANE
GREENVILLE, IL 62246
Phone 618-664-0926
Manager: TROY WALKER
1374 SKY LANE
GREENVILLE, IL 62246
Phone 618-664-0926
OR 618-664-3272

Airport Operational Statistics

Aircraft based on the field: 50
Single engine airplanes: 40
Multi engine airplanes: 1
Helicopters: 1
Ultralights: 8
    
Aircraft operations: avg 68/day *
80% local general aviation
8% transient general aviation
8% air taxi
4% military
* for 12-month period ending 31 May 2018

Additional Remarks

INTENSIVE PARACHUTE OPS.
AWOS 3 CLICKS ON CTAF.
DOOR CODE FOR BUILDING ENTRY IS CTAF, THEN #

Instrument Procedures

NOTE: All procedures below are presented as PDF files. If you need a reader for these files, you should download the free Adobe Reader.

NOT FOR NAVIGATION. Please procure official charts for flight.
FAA instrument procedures published for use from 28 March 2019 at 0901Z to 25 April 2019 at 0900Z.

 
IAPs - Instrument Approach Procedures
RNAV (GPS) RWY 18 **CHANGED**   download (202KB)
RNAV (GPS) RWY 36 **CHANGED**   download (210KB)
VOR/DME-A **CHANGED**   download (148KB)
NOTE: Special Take-Off Minimums/Departure Procedures apply   download (201KB)

Other nearby airports with instrument procedures:

KVLA - Vandalia Municipal Airport (14 nm NE)
IL48 - St Louis Metro-East Airport/Shafer Field (21 nm W)
KSLO - Salem-Leckrone Airport (23 nm SE)
KENL - Centralia Municipal Airport (24 nm SE)
3LF - Litchfield Municipal Airport (24 nm NW)
 
Loc | Ops | Rwys | IFR | FBO | Links
Com | Nav | Svcs | Stats | Notes
Area around KGRE (Greenville Airport)
 
Road maps at: MapQuest Bing Google
 
Aerial photo
WARNING: Photo may not be current or correct
Aerial photo of KGRE (Greenville Airport)
Photo courtesy of Cardinal Aviation Services Aerial Photography

Do you have a better or more recent aerial photo of Greenville Airport that you would like to share? If so, please send us your photo.

 
Sectional chart

 
Airport distance calculator
Flying to Greenville Airport? Find the distance to fly.

From to KGRE

Sunrise and sunset
Times for 18-Apr-2019
 Local
(UTC-5)
 Zulu
(UTC)
Morning civil twilight05:5010:50
Sunrise06:1811:18
Sunset19:3600:36
Evening civil twilight20:0401:04

Current date and time
Zulu (UTC)  18-Apr-2019 14:15:35
Local (UTC-5)  18-Apr-2019 09:15:35
 
METAR
KSLO 
22nm SE 
181355Z AUTO 20008G14KT 10SM BKN009 18/17 A2964 RMK AO2 T01830170
KENL 
23nm SE 
181355Z AUTO 23009G16KT 10SM CLR 18/17 A2966 RMK AO2 T01800173
K3LF 
24nm NW 
181355Z AUTO 32015G21KT 4SM BR OVC005 14/13 A2966 RMK AO2 T01350130
KBLV 
28nm SW 
181356Z AUTO 21005KT 10SM FEW120 19/17 A2964 RMK AO2 SLP037 T01850172 $
KALN 
31nm W 
181350Z 31009G18KT 3SM BR OVC006 13/13 A2967
KMVN 
39nm SE 
181356Z AUTO 19018G27KT 10SM CLR 18/16 A2966 RMK AO2 PK WND 19027/1354 SLP040 T01780156
KCPS 
40nm SW 
181353Z 32015G20KT 5SM -RA BR BKN008 BKN013 OVC020 16/14 A2967 RMK AO2 RAB15 SLP044 P0001 T01610144
K1H2 
42nm E 
181355Z AUTO 17010G16KT 10SM OVC008 17/17 A2965 RMK AO2 T01700170
KTAZ 
42nm N 
181355Z AUTO 31011G15KT 3SM BR OVC004 14/14 A2964 RMK AO2 T01410138
KSAR 
44nm S 
181355Z AUTO 21009G19KT 10SM RA BKN011 BKN065 OVC090 17/17 A2969 RMK AO2 P0001 T01680168
TAF
KBLV 
28nm SW 
181019Z 1810/1914 16010KT 8000 -SHRA BKN020 510003 QNH2961INS TEMPO 1810/1811 17010G20KT -TSRA OVC020CB BECMG 1815/1816 32010G15KT 8000 -SHRA BKN010 510003 QNH2965INS BECMG 1819/1820 34010KT 9999 NSW BKN020 QNH2965INS BECMG 1913/1914 34015G20KT 9999 OVC018 510043 QNH2970INS TX18/1810Z TN09/1907Z
NOTAMs
Click for the latest NOTAMs
NOTAMs are issued by the DoD/FAA and will open in a separate window not controlled by AirNav.

 

 
 

FBO, Fuel Providers, and Aircraft Ground Support

  
 Business Name 
 
 Contact 
 
 Services / Description 
 
Fuel Prices
 
Comments
  
Greenville Airport 618-664-0926
[email]
Airport management, Aviation fuel, Aircraft parking (ramp or tiedown), Hangars, Hangar leasing / sales, Passenger terminal and lounge, Flight training, ...

More info about Greenville Airport
Phillips 66
100LL Jet A
AS $4.10 $3.83 
 Updated 10-Apr-2019
 
   4 read write
AS=Assisted/Self Service
Update Fuel Prices
 

Would you like to see your business listed on this page?

 If your business provides an interesting product or service to pilots, flight crews, aircraft, or users of the Greenville Airport, you should consider listing it here.  To start the listing process, click on the button below
 
Add a business
 

Other Pages about Greenville Airport

Update a link
 
Copyright © AirNav, LLC. All rights reserved. Privacy Policy  Contact